{"data":{"norad_id":65492,"intl_designator":"2025-198A","name":"STARLINK-35226","alt_names":[],"object_type":"PAYLOAD","status":"ACTIVE","operator":null,"country":"US","launch_date":"2025-09-05","launch_site_code":"AFETR","launch_vehicle":null,"mission":null,"orbit_class":"UNKNOWN","rcs_meters":null,"size_class":null,"mass_kg":null,"dimensions":null,"purposes":["comms"],"wikipedia_slug":null,"has_3d_model":false,"image_url":null,"decayed_at":null,"tle_current":{"epoch":"2026-05-24T18:36:25.584768Z","epoch_age_seconds":84745,"freshness":"FRESH","line1":"1 65492U 25198A   26144.77529612  .00031775  00000+0  94782-3 0  9992","line2":"2 65492  53.1588 276.5597 0000917  95.6050 264.5058 15.34392096 40287","mean_motion":15.34392096,"eccentricity":9.17e-5,"inclination_deg":53.1588,"raan_deg":276.5597,"arg_perigee_deg":95.605,"mean_anomaly_deg":264.5058,"bstar":0.00094782,"rev_number":4028,"period_min":93.848241512318,"perigee_km":462.09942545736,"apogee_km":463.35403986593,"semimajor_km":6840.8637326616,"source":"CELESTRAK","updated_at":"2026-05-25T13:38:20.839337Z"}}}